When you browse on this site, cookies collect data to enhance your experience and personalize the content and advertising you see.
Visit our Privacy Policy to learn more. By continuing to use the site, you agree to this use of cookies and data.
  • In Austria
  • List of Countries
  • For 7 days
  • Water Temperature
  • Weather Map
  • News
  • Weather Widgets
  • user-avatar
    Login

    Hourly Weather Potosi

    Today, 15 October, Tuesday

    Time Temperature Precipitation Wind Pressure Humidity
    00:00 +8°C° 0.1 mm 1 mps 467 mmHg 72%
    01:00 +8°C° 0.1 mm 1 mps 467 mmHg 71%
    02:00 +8°C° 0.1 mm 1 mps 467 mmHg 70%
    03:00 +7°C° 0.1 mm 1 mps 467 mmHg 67%
    04:00 +6°C° 0.1 mm 0 mps 467 mmHg 65%
    05:00 +6°C° 0.1 mm 0 mps 467 mmHg 62%
    06:00 +8°C° 0 mm 1 mps 467 mmHg 59%
    07:00 +8°C° 0 mm 1 mps 468 mmHg 56%
    08:00 +9°C° 0 mm 1 mps 469 mmHg 53%
    09:00 +9°C° 0 mm 2 mps 469 mmHg 50%
    10:00 +10°C° 0 mm 2 mps 470 mmHg 48%
    11:00 +13°C° 0 mm 2 mps 470 mmHg 45%
    12:00 +12°C° 0.3 mm 3 mps 470 mmHg 44%
    13:00 +13°C° 0.3 mm 3 mps 470 mmHg 43%
    14:00 +14°C° 0.3 mm 4 mps 470 mmHg 42%
    15:00 +12°C° 1.3 mm 4 mps 469 mmHg 50%
    16:00 +11°C° 1.3 mm 4 mps 467 mmHg 58%
    17:00 +9°C° 1.3 mm 5 mps 466 mmHg 66%
    18:00 +8°C° 0.3 mm 4 mps 466 mmHg 66%
    19:00 +9°C° 0.3 mm 3 mps 467 mmHg 66%
    20:00 +8°C° 0.3 mm 2 mps 467 mmHg 66%
    21:00 +8°C° 0 mm 2 mps 467 mmHg 66%
    22:00 +8°C° 0 mm 2 mps 467 mmHg 66%
    23:00 +8°C° 0 mm 2 mps 467 mmHg 67%

    Tomorrow, 16 October, Wednesday

    Time Temperature Precipitation Wind Pressure Humidity
    00:00 +7°C° 0 mm 2 mps 467 mmHg 69%
    01:00 +8°C° 0 mm 1 mps 467 mmHg 72%
    02:00 +8°C° 0 mm 1 mps 467 mmHg 74%
    03:00 +8°C° 0 mm 1 mps 467 mmHg 75%
    04:00 +7°C° 0 mm 1 mps 467 mmHg 76%
    05:00 +7°C° 0 mm 1 mps 466 mmHg 77%
    06:00 +8°C° 0 mm 1 mps 467 mmHg 72%
    07:00 +8°C° 0 mm 1 mps 468 mmHg 68%
    08:00 +9°C° 0 mm 1 mps 469 mmHg 63%
    09:00 +9°C° 0 mm 2 mps 469 mmHg 57%
    10:00 +12°C° 0 mm 2 mps 470 mmHg 51%
    11:00 +13°C° 0 mm 2 mps 470 mmHg 44%
    12:00 +13°C° 0.3 mm 3 mps 470 mmHg 42%
    13:00 +13°C° 0.3 mm 3 mps 470 mmHg 40%
    14:00 +14°C° 0.3 mm 4 mps 470 mmHg 38%
    15:00 +14°C° 0.7 mm 4 mps 469 mmHg 43%
    16:00 +13°C° 0.7 mm 4 mps 468 mmHg 49%
    17:00 +12°C° 0.7 mm 5 mps 467 mmHg 54%
    18:00 +11°C° 0.8 mm 4 mps 467 mmHg 60%
    19:00 +10°C° 0.8 mm 4 mps 467 mmHg 65%
    20:00 +8°C° 0.8 mm 4 mps 467 mmHg 71%
    21:00 +9°C° 0.2 mm 3 mps 467 mmHg 73%
    22:00 +9°C° 0.2 mm 3 mps 467 mmHg 75%
    23:00 +8°C° 0.2 mm 2 mps 467 mmHg 77%

    Day after tomorrow, 17 October, Thursday

    Time Temperature Precipitation Wind Pressure Humidity
    00:00 +8°C° 0.4 mm 2 mps 467 mmHg 77%
    01:00 +8°C° 0.4 mm 2 mps 467 mmHg 77%
    02:00 +8°C° 0.4 mm 2 mps 467 mmHg 77%
    03:00 +7°C° 0.2 mm 2 mps 467 mmHg 75%
    04:00 +8°C° 0.2 mm 1 mps 467 mmHg 74%
    05:00 +8°C° 0.2 mm 1 mps 466 mmHg 72%
    06:00 +9°C° 0.1 mm 1 mps 467 mmHg 67%
    07:00 +8°C° 0.1 mm 2 mps 468 mmHg 63%
    08:00 +9°C° 0.1 mm 2 mps 468 mmHg 58%
    09:00 +10°C° 0.1 mm 2 mps 469 mmHg 52%
    10:00 +12°C° 0.1 mm 2 mps 469 mmHg 45%
    11:00 +13°C° 0.1 mm 3 mps 470 mmHg 39%
    12:00 +13°C° 0.4 mm 3 mps 470 mmHg 38%
    13:00 +14°C° 0.4 mm 3 mps 469 mmHg 36%
    14:00 +16°C° 0.4 mm 3 mps 469 mmHg 35%
    15:00 +14°C° 0.6 mm 3 mps 469 mmHg 38%
    16:00 +13°C° 0.6 mm 3 mps 468 mmHg 41%
    17:00 +13°C° 0.6 mm 3 mps 467 mmHg 45%
    18:00 +12°C° 0.7 mm 3 mps 467 mmHg 50%
    19:00 +11°C° 0.7 mm 3 mps 467 mmHg 56%
    20:00 +10°C° 0.7 mm 3 mps 467 mmHg 61%
    21:00 +9°C° 0.4 mm 3 mps 467 mmHg 64%
    22:00 +9°C° 0.4 mm 3 mps 467 mmHg 66%
    23:00 +9°C° 0.4 mm 3 mps 467 mmHg 69%

    18 October, Friday

    Time Temperature Precipitation Wind Pressure Humidity
    00:00 +8°C° 0.3 mm 3 mps 467 mmHg 70%
    01:00 +8°C° 0.3 mm 3 mps 467 mmHg 71%
    02:00 +7°C° 0.3 mm 2 mps 466 mmHg 73%
    03:00 +7°C° 0.1 mm 2 mps 466 mmHg 73%
    04:00 +7°C° 0.1 mm 2 mps 466 mmHg 74%
    05:00 +7°C° 0.1 mm 2 mps 466 mmHg 74%
    06:00 +7°C° 0.1 mm 2 mps 467 mmHg 71%
    07:00 +7°C° 0.1 mm 2 mps 467 mmHg 69%
    08:00 +8°C° 0.1 mm 2 mps 467 mmHg 66%
    09:00 +9°C° 0.1 mm 3 mps 468 mmHg 61%
    10:00 +10°C° 0.1 mm 3 mps 468 mmHg 56%
    11:00 +11°C° 0.1 mm 4 mps 469 mmHg 51%
    12:00 +10°C° 0.4 mm 5 mps 469 mmHg 51%
    13:00 +12°C° 0.4 mm 5 mps 468 mmHg 51%
    14:00 +11°C° 0.4 mm 6 mps 468 mmHg 51%
    15:00 +10°C° 1.1 mm 6 mps 467 mmHg 57%
    16:00 +9°C° 1.1 mm 5 mps 466 mmHg 62%
    17:00 +9°C° 1.1 mm 5 mps 465 mmHg 68%
    18:00 +8°C° 1.6 mm 4 mps 465 mmHg 70%
    19:00 +8°C° 1.6 mm 3 mps 466 mmHg 73%
    20:00 +8°C° 1.6 mm 2 mps 466 mmHg 75%
    21:00 +8°C° 0.5 mm 2 mps 466 mmHg 77%
    22:00 +7°C° 0.5 mm 2 mps 467 mmHg 80%
    23:00 +7°C° 0.5 mm 2 mps 467 mmHg 82%

    19 October, Saturday

    Time Temperature Precipitation Wind Pressure Humidity
    00:00 +7°C° 1.2 mm 2 mps 467 mmHg 84%
    01:00 +6°C° 1.2 mm 2 mps 466 mmHg 86%
    02:00 +5°C° 1.2 mm 2 mps 466 mmHg 89%
    03:00 +6°C° 1.5 mm 1 mps 465 mmHg 87%
    04:00 +6°C° 1.5 mm 1 mps 465 mmHg 85%
    05:00 +6°C° 1.5 mm 1 mps 465 mmHg 84%
    06:00 +6°C° 0.5 mm 1 mps 465 mmHg 85%
    07:00 +6°C° 0.5 mm 1 mps 466 mmHg 86%
    08:00 +6°C° 0.5 mm 1 mps 466 mmHg 87%
    09:00 +6°C° 0.6 mm 1 mps 466 mmHg 85%
    10:00 +6°C° 0.6 mm 1 mps 466 mmHg 84%
    11:00 +6°C° 0.6 mm 1 mps 466 mmHg 82%
    12:00 +7°C° 0.3 mm 2 mps 466 mmHg 75%
    13:00 +8°C° 0.3 mm 2 mps 467 mmHg 67%
    14:00 +10°C° 0.3 mm 3 mps 467 mmHg 59%
    15:00 +10°C° 0.8 mm 3 mps 467 mmHg 59%
    16:00 +10°C° 0.8 mm 3 mps 466 mmHg 59%
    17:00 +10°C° 0.8 mm 3 mps 466 mmHg 59%
    18:00 +9°C° 0.5 mm 3 mps 466 mmHg 63%
    19:00 +9°C° 0.5 mm 3 mps 466 mmHg 66%
    20:00 +8°C° 0.5 mm 2 mps 466 mmHg 70%
    21:00 +8°C° 0.1 mm 2 mps 466 mmHg 70%
    22:00 +8°C° 0.1 mm 2 mps 466 mmHg 70%
    23:00 +7°C° 0.1 mm 2 mps 467 mmHg 70%

    20 October, Sunday

    Time Temperature Precipitation Wind Pressure Humidity
    00:00 +7°C° 0 mm 2 mps 466 mmHg 70%
    01:00 +7°C° 0 mm 2 mps 466 mmHg 71%
    02:00 +7°C° 0 mm 2 mps 466 mmHg 71%
    03:00 +6°C° 0 mm 2 mps 466 mmHg 70%
    04:00 +6°C° 0 mm 2 mps 466 mmHg 69%
    05:00 +6°C° 0 mm 2 mps 465 mmHg 69%
    06:00 +5°C° 0 mm 3 mps 466 mmHg 63%
    07:00 +7°C° 0 mm 3 mps 466 mmHg 58%
    08:00 +7°C° 0 mm 3 mps 467 mmHg 53%
    09:00 +8°C° 0 mm 4 mps 467 mmHg 44%
    10:00 +9°C° 0 mm 5 mps 468 mmHg 36%
    11:00 +11°C° 0 mm 6 mps 469 mmHg 28%
    12:00 +13°C° 0 mm 6 mps 469 mmHg 25%
    13:00 +14°C° 0 mm 6 mps 469 mmHg 23%
    14:00 +15°C° 0 mm 7 mps 469 mmHg 20%
    15:00 +14°C° 0 mm 7 mps 468 mmHg 21%
    16:00 +14°C° 0 mm 7 mps 467 mmHg 22%
    17:00 +12°C° 0 mm 7 mps 467 mmHg 22%
    18:00 +12°C° 0 mm 5 mps 467 mmHg 26%
    19:00 +11°C° 0 mm 3 mps 467 mmHg 29%
    20:00 +11°C° 0 mm 1 mps 467 mmHg 32%
    21:00 +9°C° 0 mm 2 mps 467 mmHg 33%
    22:00 +8°C° 0 mm 2 mps 467 mmHg 34%
    23:00 +7°C° 0 mm 2 mps 466 mmHg 35%
    Show more